Location: C.E.K. Mees Observatory
(42.7003°N, 77.4088°W)
Time: 18:23:38
(UTC-04:00)

ISS - Pass Details

Date: 08 October 2017
Orbit: 400 x 408 km, 51.6° (Epoch: 24 October)

Event Time Altitude Azimuth Distance (km) Brightness Sun altitude
Rises 19:49:12 0° 305° (NW) 2,326 1.1 -13.8°
Reaches altitude 10° 19:51:35 10° 321° (NW) 1,466 -0.4 -14.3°
Maximum altitude 19:54:14 22° 15° (NNE) 950 -2.1 -14.7°
Enters shadow 19:55:14 19° 42° (NE) 1,042 -2.1 -14.9°
